Flag for Iran Weather past 2 weeks in Mashhad, Iran

Now
48 °F

Fog.


Feels Like: 46 °F
Forecast: 52 / 78 °F
Wind: 5 mph from East

Location: Mashhad Airport

Current Time: Oct 23, 2014 at 4:20:28 AM

Latest Report: Oct 23, 2014 at 2:55 AM


Visibility: 3 mi

Pressure: 30.09 "Hg

Humidity: 94%

Dew point: 46 °F

Location of MashhadLocation

Historic Weather in Mashhad — Graph

°F

Mashhad temperature yesterday

Maximum temperature yesterday: 75 °F (at 10:30 AM)
Minimum temperature yesterday: 52 °F (at 6:30 PM)
Average temperature yesterday: 59 °F

Past Weeks' High & Low Weather Summary

 TemperatureHumidityPressure
High82 °F (Oct 20, 12:30 PM)100% (Oct 8, 4:00 AM)30.45 "Hg (Oct 8, 4:00 AM)
Low39 °F (Oct 10, 3:30 AM)14% (Oct 14, 1:30 PM)29.80 "Hg (Oct 18, 12:59 PM)
Average59 °F50%30.14 "Hg
* Reported Oct 8 2:30 AM — Oct 23 2:55 AM, Mashhad, Weather by CustomWeather, © 2014

Note: Actual official high and low records may vary slightly from our data, if they occured in-between our weather recording intervals... More about our weather records

Advertising

Mashhad weather history for previous 24 hours

 ConditionsComfort  
Time TempWeatherWind HumidityBarometerVisibility
2:55 AM
Oct 23
48 °FFog.5 mph94%30.09 "Hg3 mi
2:20 AM50 °FClear.5 mph88%30.09 "Hg4 mi
1:52 AM50 °FFog.7 mph88%30.09 "Hg3 mi
1:20 AM52 °FClear.5 mph82%30.09 "Hg10 mi
12:55 AM52 °FClear.7 mph82%30.09 "Hg10 mi
12:20 AM52 °FPassing clouds.No wind88%30.09 "HgN/A
11:55 PM
Oct 22
52 °FPassing clouds.No wind82%30.09 "HgN/A
11:20 PM52 °FClear.5 mph88%30.07 "Hg5 mi
11:00 PM52 °FClear.5 mph88%30.07 "Hg4 mi
10:30 PM52 °FClear.5 mph94%30.07 "Hg4 mi
10:00 PM52 °FFog.5 mph94%30.07 "Hg3 mi
9:30 PM52 °FFog.No wind94%30.07 "Hg3 mi
8:55 PM52 °FFog.No wind94%30.07 "Hg3 mi
8:30 PM52 °FClear.7 mph88%30.07 "Hg4 mi
8:00 PM52 °FClear.5 mph88%30.07 "Hg10 mi
7:30 PM54 °FPassing clouds.9 mph77%30.04 "HgN/A
7:00 PM54 °FPassing clouds.5 mph82%30.04 "HgN/A
6:30 PM52 °FPassing clouds.No wind88%30.01 "HgN/A
6:00 PM55 °FPassing clouds.No wind72%30.01 "HgN/A
5:30 PM57 °FPassing clouds.7 mph59%29.98 "HgN/A
5:00 PM57 °FPassing clouds.7 mph63%29.98 "HgN/A
4:30 PM57 °FPassing clouds.9 mph67%29.98 "HgN/A
4:00 PM59 °FPassing clouds.14 mph68%29.95 "HgN/A
3:30 PM57 °FScattered clouds.7 mph72%29.98 "HgN/A
3:00 PM55 °FBroken clouds.9 mph88%29.98 "HgN/A
2:30 PM55 °FBroken clouds.16 mph77%30.01 "HgN/A
2:00 PM57 °FScattered clouds.18 mph77%30.01 "Hg4 mi
1:30 PM57 °FSprinkles. Scattered clouds.16 mph77%30.01 "Hg4 mi
1:00 PM59 °FSprinkles. Scattered clouds.23 mph77%29.98 "Hg4 mi
12:30 PM61 °FSprinkles. Scattered clouds.12 mph77%29.95 "Hg4 mi
12:00 PM66 °FSandstorm.16 mph52%29.98 "Hg3 mi
11:30 AM75 °FScattered clouds.16 mph34%29.95 "Hg4 mi
11:00 AM72 °FThunderstorms. Broken clouds.9 mph38%29.92 "Hg4 mi
10:30 AM75 °FScattered clouds.7 mph34%29.89 "Hg5 mi
10:00 AM72 °FScattered clouds.7 mph41%29.92 "Hg4 mi
9:30 AM72 °FClear.9 mph38%29.92 "Hg4 mi
9:00 AM72 °FSunny.7 mph38%29.92 "Hg10 mi
8:30 AM72 °FSunny.5 mph38%29.92 "Hg10 mi
8:00 AM68 °FPassing clouds.5 mph43%29.92 "Hg5 mi
7:30 AM64 °FPassing clouds.5 mph49%29.92 "Hg5 mi
7:00 AM61 °FPassing clouds.5 mph55%29.92 "Hg4 mi
6:30 AM59 °FPassing clouds.5 mph63%29.92 "Hg4 mi
6:00 AM59 °FPassing clouds.7 mph63%29.92 "Hg4 mi
5:30 AM57 °FClear.7 mph67%29.89 "Hg4 mi
5:00 AM59 °FClear.7 mph63%29.89 "Hg4 mi
4:00 AM57 °FClear.5 mph67%29.89 "Hg4 mi
Weather by CustomWeather, © 2014

See weather overviewHow to use our weather pages